Wind_Speed
23 25 25 27 22 21 22 23 22 26 28 36 40 44 43 39 39 40 38 39 39 38 37 39 36 35 35 32 32 30 27 25 22 20 18 22 23 26 28 33 35 34 33
22 22 23 24 20 20 20 21 21 19 27 33 34 37 39 34 34 35 39 41 42 40 38 37 39 32 31 32 33 31 28 27 22 25 23 24 25 25 26 28 29 31 33
21 21 24 24 23 27 24 24 26 23 20 25 30 27 25 30 35 37 38 39 35 35 35 37 40 38 36 36 33 31 29 30 27 28 28 28 30 31 31 33 35 36 38
21 21 21 24 24 24 29 31 27 31 31 29 28 30 31 26 27 33 38 38 32 36 38 37 36 37 41 34 32 31 29 30 30 31 31 32 34 35 37 38 38 38 37
31 25 16 21 29 30 26 32 36 34 36 34 33 33 31 33 34 32 36 39 34 35 35 39 38 38 40 36 32 30 28 29 30 31 33 35 38 41 42 41 39 40 41
33 26 21 30 43 38 33 29 34 39 38 38 32 33 33 30 26 25 31 36 36 32 31 30 32 32 32 34 33 34 34 34 34 35 38 41 43 47 48 44 47 45 47
39 40 46 49 54 35 34 34 32 36 44 42 40 36 36 32 27 25 24 24 27 30 29 28 28 29 29 31 33 38 37 36 37 39 43 44 46 46 45 48 48 47 45
45 42 45 50 52 41 29 32 37 35 39 40 42 40 39 38 38 38 34 32 29 29 30 32 32 35 34 34 38 40 41 42 41 45 45 46 46 46 47 47 47 49 50
53 51 51 54 48 35 30 30 35 38 40 40 41 45 44 44 44 44 42 39 39 35 34 33 33 35 36 36 37 43 45 45 47 49 50 49 50 49 48 50 51 52 53
46 46 46 46 31 27 33 31 31 37 42 42 41 43 46 47 46 44 41 41 42 43 42 43 42 43 42 42 43 43 47 50 51 53 53 53 54 54 54 55 57 58 60
48 43 36 29 19 23 29 30 33 33 38 41 44 46 44 45 47 46 49 47 47 47 49 48 49 49 48 49 49 49 50 52 53 54 56 58 57 57 59 61 61 61 63
40 37 37 43 29 24 29 31 34 32 32 36 37 43 46 46 44 45 46 46 46 48 50 50 50 51 52 54 55 54 54 55 58 58 58 61 61 60 61 63 63 65 68
41 38 43 44 54 37 38 40 35 36 33 35 37 41 43 45 48 47 47 48 51 53 55 54 53 54 57 57 57 59 59 60 59 58 58 59 60 63 66 66 66 69 71
55 52 44 54 54 47 48 47 40 38 38 40 42 41 40 44 44 48 52 52 52 54 55 57 58 58 58 59 59 61 61 61 60 60 63 63 66 68 68 69 70 71 69
57 59 62 61 57 54 53 52 42 38 37 38 43 44 44 44 39 45 50 54 55 56 57 59 61 63 63 62 60 59 61 61 63 64 66 69 69 68 70 70 72 73 72
62 64 65 57 47 45 46 50 46 39 36 36 39 45 50 53 52 51 53 56 59 61 63 63 63 63 63 63 62 60 61 63 66 66 67 69 69 71 72 72 72 74 72
60 51 43 40 42 42 42 40 41 38 35 36 39 42 42 48 53 58 58 58 57 58 59 60 61 62 62 63 63 65 66 65 67 70 72 71 71 74 73 71 72 71 73
53 41 45 44 48 43 42 38 42 41 41 40 43 44 44 43 42 42 44 53 63 64 64 64 65 65 66 68 68 68 69 68 68 70 72 72 72 71 71 72 73 76 79
48 50 51 58 55 48 44 45 46 48 48 49 48 47 46 46 44 43 45 46 48 52 57 62 64 65 66 67 69 70 70 70 70 70 69 69 71 73 75 78 82 86 87
52 54 57 53 50 54 50 49 48 53 57 58 56 55 54 54 51 49 49 50 51 50 51 54 56 60 64 66 68 69 70 70 71 73 75 76 78 81 84 86 91 94 95
57 58 54 57 63 54 48 53 53 53 56 60 61 61 60 59 58 61 62 60 60 59 58 60 61 61 64 66 70 72 74 76 79 81 83 85 88 91 93 96 99 101 102
63 68 72 72 67 55 58 64 58 59 58 61 64 63 64 65 64 64 64 65 68 69 68 69 71 72 74 76 79 83 86 87 89 89 90 91 92 95 98 101 103 104 105
70 70 70 70 66 64 68 64 67 68 71 76 79 79 77 76 75 74 72 72 72 72 72 73 76 79 80 82 84 86 88 92 94 95 97 100 101 104 107 109 111 109 109
79 80 80 75 73 73 73 72 76 73 88 90 84 85 85 81 77 73 73 75 77 78 79 80 83 86 89 91 93 96 98 101 102 104 106 106 109 111 112 113 111 105 99
90 87 84 86 86 83 85 90 96 95 107 102 91 85 83 81 81 81 82 84 84 86 88 88 90 92 95 98 103 107 107 108 112 110 111 113 112 110 106 97 92 91 83
87 88 85 88 92 94 94 98 104 113 111 101 91 85 88 91 91 94 95 97 96 98 98 100 101 102 103 106 107 109 107 105 105 104 104 101 94 90 86 82 82 77 71
Wind_Direction
284 266 271 250 267 278 277 272 265 254 246 245 247 245 252 253 257 259 261 267 270 272 273 278 270 270 271 276 281 282 275 270 288 283 285 286 285 282 281 279 277 276 274
304 285 283 267 252 263 270 276 278 258 238 241 246 249 250 255 255 254 258 261 265 270 268 263 265 271 273 275 281 273 269 272 280 283 284 285 286 289 289 286 283 281 280
309 299 284 287 277 261 251 250 253 250 253 248 243 240 257 258 256 255 262 262 266 270 261 269 262 267 272 279 273 265 264 271 273 277 280 282 282 286 287 289 288 288 288
295 285 282 282 286 271 256 247 253 246 250 254 257 258 256 269 266 264 259 259 265 264 266 270 271 270 267 271 260 261 266 269 272 278 282 282 284 287 292 294 293 293 293
289 283 301 318 307 275 268 254 246 247 249 256 258 263 271 269 275 277 257 257 266 269 269 269 264 272 271 263 259 263 265 268 272 277 280 281 286 290 293 294 291 291 294
293 274 290 304 306 297 274 262 258 253 255 255 259 262 266 264 264 273 263 260 268 267 265 269 268 269 265 261 262 264 266 270 273 278 284 285 287 287 290 292 292 291 290
294 284 301 309 308 293 283 269 266 260 254 259 259 259 254 256 257 263 259 258 261 263 267 266 269 268 268 264 261 264 270 272 276 279 284 285 287 286 288 293 293 294 293
311 302 300 305 301 295 283 275 267 267 259 254 253 255 252 251 256 257 256 256 259 264 264 270 270 266 267 268 265 268 270 273 278 282 284 286 286 286 288 293 295 294 294
308 300 296 298 292 287 282 266 264 265 266 263 253 249 254 257 257 258 257 255 258 260 263 271 273 267 265 269 273 272 273 275 278 280 283 284 286 288 287 290 294 294 294
328 319 302 295 279 285 285 274 263 262 263 262 262 257 253 253 254 257 259 263 264 261 264 272 278 277 271 268 270 269 269 274 278 281 283 282 284 287 286 288 292 292 294
332 347 334 313 291 289 295 287 281 268 265 267 268 266 259 257 256 257 259 262 265 267 269 274 276 275 270 273 275 271 274 277 279 279 280 281 282 284 286 287 290 290 294
340 338 341 329 302 288 294 294 283 270 270 264 270 270 272 268 265 258 259 261 265 268 269 272 273 274 273 275 278 274 277 281 283 284 284 286 287 287 288 290 292 293 296
314 332 329 324 325 288 281 288 282 277 276 269 270 273 273 274 274 269 266 262 264 268 270 269 269 271 274 276 276 280 284 286 287 287 286 286 289 292 294 294 294 294 294
308 312 315 315 310 302 288 282 279 271 270 267 267 271 273 276 273 270 271 271 269 267 268 270 270 272 274 277 279 281 283 284 284 286 287 288 290 292 291 290 291 291 291
305 305 308 308 307 299 296 286 276 269 271 273 272 271 270 268 273 276 273 272 273 274 273 272 272 274 277 277 278 279 280 282 284 286 287 288 289 289 290 288 290 290 290
297 299 302 303 293 291 290 281 272 267 266 272 277 276 272 271 268 268 268 269 272 273 274 274 276 277 277 277 280 280 283 285 285 284 285 285 286 287 288 290 289 290 291
292 299 300 304 303 305 298 282 273 268 272 278 285 288 291 279 268 262 260 258 260 264 268 271 273 275 278 279 279 279 280 279 280 281 283 285 287 289 289 288 288 290 291
287 287 297 306 306 302 296 287 279 275 277 283 284 289 298 306 296 287 281 271 261 262 266 271 272 274 276 277 279 278 279 282 283 286 287 288 288 287 287 289 291 292 293
279 287 294 299 302 296 295 286 283 282 281 282 286 289 290 296 302 294 288 285 281 273 271 271 273 275 277 277 279 279 281 283 286 285 285 285 286 287 288 290 291 291 294
284 286 290 291 298 297 299 290 289 285 283 284 287 289 290 291 290 290 290 287 283 281 278 277 276 276 276 278 279 281 282 283 283 283 284 285 287 288 289 290 291 293 295
280 285 284 289 292 294 294 295 286 287 287 286 286 287 286 286 286 285 285 284 282 281 279 279 279 279 281 282 284 284 284 285 284 285 286 287 287 288 291 291 291 293 294
281 285 284 283 284 287 291 295 287 283 284 287 287 286 287 287 287 287 285 282 279 278 280 280 281 281 282 282 282 283 284 285 286 286 288 288 288 289 289 291 292 293 294
281 282 281 282 283 284 291 289 293 283 284 286 289 287 284 284 284 284 284 283 281 280 280 280 281 281 281 282 283 284 284 284 285 285 286 287 288 288 289 291 292 294 293
275 279 280 281 281 283 287 291 291 291 295 301 298 287 283 282 282 282 282 282 282 282 282 282 281 281 282 282 283 283 284 284 284 284 284 286 287 286 287 291 293 291 291
274 277 279 281 283 285 284 289 287 290 296 299 297 283 276 276 277 281 282 281 281 283 283 282 282 282 282 283 283 283 282 283 282 281 282 283 287 286 287 288 288 290 290
281 279 281 286 285 287 290 291 287 291 294 294 291 286 280 278 277 281 281 282 284 285 283 285 285 284 286 285 283 282 282 282 281 282 285 285 287 285 285 286 287 289 290
Height
10868 10865 10865 10866 10866 10867 10866 10866 10869 10871 10872 10875 10879 10882 10883 10884 10884 10884 10885 10887 10887 10888 10887 10886 10887 10886 10884 10884 10884 10881 10879 10878 10876 10875 10873 10873 10872 10871 10870 10869 10867 10866 10865
10863 10860 10859 10861 10862 10862 10862 10862 10861 10864 10865 10868 10871 10875 10876 10876 10876 10877 10877 10878 10880 10880 10879 10879 10879 10877 10876 10875 10875 10874 10871 10871 10869 10869 10867 10866 10865 10864 10863 10862 10860 10858 10856
10857 10854 10853 10853 10856 10857 10857 10858 10857 10857 10860 10862 10865 10866 10867 10868 10868 10869 10869 10870 10870 10870 10871 10870 10869 10868 10868 10867 10866 10865 10864 10864 10862 10862 10860 10859 10858 10856 10855 10853 10852 10851 10849
10852 10850 10848 10848 10846 10847 10850 10850 10851 10853 10854 10855 10857 10859 10860 10859 10860 10860 10860 10859 10860 10861 10861 10861 10861 10860 10859 10858 10857 10856 10856 10855 10854 10853 10851 10850 10850 10848 10847 10845 10842 10840 10838
10847 10845 10842 10844 10844 10838 10840 10841 10843 10845 10846 10848 10849 10851 10852 10852 10852 10851 10851 10852 10852 10852 10852 10853 10852 10852 10851 10850 10849 10849 10848 10846 10845 10843 10843 10842 10841 10839 10837 10835 10833 10832 10829
10840 10837 10834 10835 10835 10833 10829 10828 10834 10837 10838 10840 10842 10844 10844 10844 10843 10844 10844 10844 10844 10844 10844 10844 10844 10844 10843 10842 10842 10840 10839 10838 10837 10836 10835 10833 10832 10830 10828 10825 10822 10820 10818
10832 10831 10826 10825 10823 10822 10821 10821 10823 10826 10830 10831 10833 10835 10836 10838 10838 10837 10838 10838 10837 10837 10837 10837 10837 10837 10835 10834 10833 10832 10831 10830 10828 10827 10826 10824 10822 10819 10817 10814 10810 10807 10804
10822 10819 10816 10812 10812 10811 10808 10809 10812 10815 10818 10822 10824 10825 10827 10829 10830 10830 10831 10831 10830 10829 10829 10829 10829 10828 10827 10826 10825 10824 10822 10820 10819 10817 10816 10813 10810 10807 10805 10801 10798 10794 10791
10816 10809 10805 10802 10800 10798 10796 10796 10799 10802 10806 10809 10813 10814 10816 10819 10820 10820 10821 10821 10821 10820 10820 10819 10819 10818 10817 10815 10814 10813 10812 10810 10808 10806 10804 10801 10798 10795 10792 10789 10785 10781 10777
10805 10795 10790 10791 10788 10786 10786 10786 10788 10790 10793 10796 10799 10802 10804 10806 10809 10809 10808 10809 10809 10810 10809 10809 10807 10807 10806 10805 10803 10801 10799 10798 10796 10794 10791 10787 10784 10781 10777 10774 10771 10766 10761
10800 10788 10783 10781 10781 10781 10780 10778 10780 10781 10782 10783 10785 10788 10791 10792 10794 10796 10797 10796 10796 10796 10797 10797 10796 10794 10793 10791 10789 10787 10785 10783 10781 10779 10776 10773 10770 10767 10762 10758 10755 10751 10745
10791 10783 10777 10779 10779 10778 10774 10771 10773 10773 10772 10774 10774 10775 10775 10777 10780 10781 10783 10783 10782 10782 10783 10782 10781 10780 10779 10777 10775 10773 10770 10768 10766 10764 10762 10757 10754 10751 10746 10742 10738 10733 10729
10785 10780 10777 10772 10774 10772 10770 10765 10764 10763 10763 10764 10765 10765 10764 10764 10764 10766 10767 10769 10770 10768 10767 10766 10765 10765 10765 10764 10762 10758 10755 10753 10750 10748 10745 10742 10738 10733 10728 10723 10720 10714 10710
10774 10774 10771 10772 10764 10760 10760 10758 10755 10754 10755 10755 10756 10756 10753 10752 10752 10752 10750 10751 10754 10753 10751 10751 10749 10748 10747 10747 10745 10742 10739 10737 10734 10730 10727 10723 10719 10716 10712 10708 10703 10698 10691
10759 10760 10759 10760 10757 10748 10742 10743 10744 10743 10743 10744 10744 10743 10742 10743 10741 10738 10737 10736 10735 10735 10735 10735 10734 10733 10732 10730 10727 10725 10722 10721 10718 10714 10710 10706 10702 10698 10694 10689 10683 10678 10673
10748 10748 10745 10745 10742 10738 10732 10730 10731 10732 10732 10732 10732 10730 10729 10728 10728 10726 10724 10722 10721 10718 10716 10716 10716 10714 10713 10712 10711 10708 10705 10701 10698 10695 10691 10687 10684 10680 10675 10669 10662 10658 10652
10735 10733 10731 10731 10728 10722 10721 10721 10719 10720 10719 10717 10717 10717 10714 10712 10710 10709 10708 10707 10706 10704 10703 10701 10700 10698 10696 10694 10692 10690 10688 10684 10681 10677 10672 10668 10664 10660 10653 10649 10644 10638 10632
10720 10719 10720 10717 10717 10715 10713 10712 10712 10711 10709 10708 10706 10705 10702 10698 10694 10691 10690 10690 10690 10688 10687 10685 10683 10681 10678 10676 10673 10671 10670 10666 10662 10658 10653 10648 10644 10639 10634 10628 10624 10617 10611
10703 10706 10706 10706 10705 10703 10702 10702 10701 10700 10699 10698 10696 10694 10691 10687 10684 10681 10678 10677 10674 10672 10669 10668 10666 10664 10660 10657 10653 10650 10649 10646 10641 10637 10634 10629 10624 10620 10616 10609 10602 10595 10590
10690 10691 10692 10692 10690 10690 10683 10688 10688 10689 10688 10686 10684 10681 10678 10675 10673 10671 10668 10664 10661 10657 10653 10651 10649 10647 10643 10639 10635 10631 10627 10625 10620 10614 10609 10608 10603 10596 10591 10586 10579 10572 10566
10676 10677 10676 10676 10675 10675 10671 10673 10675 10675 10675 10673 10670 10667 10663 10660 10658 10656 10653 10650 10646 10641 10636 10632 10631 10630 10626 10622 10616 10611 10606 10602 10597 10593 10588 10585 10581 10572 10564 10558 10552 10546 10539
10659 10661 10661 10660 10659 10657 10657 10658 10659 10660 10660 10659 10657 10653 10647 10645 10642 10639 10635 10630 10627 10623 10619 10615 10611 10608 10604 10600 10595 10589 10584 10578 10572 10567 10563 10558 10553 10546 10538 10531 10524 10518 10511
10640 10642 10641 10640 10640 10638 10639 10639 10643 10643 10643 10642 10638 10634 10630 10624 10621 10617 10613 10611 10607 10602 10599 10595 10588 10582 10579 10576 10571 10566 10560 10552 10545 10542 10537 10530 10526 10518 10512 10503 10494 10489 10482
10627 10628 10628 10624 10621 10620 10622 10622 10622 10621 10620 10615 10612 10609 10604 10600 10594 10590 10588 10587 10582 10576 10573 10570 10563 10557 10552 10548 10543 10538 10532 10525 10518 10513 10506 10501 10493 10487 10483 10477 10469 10460 10451
10609 10608 10608 10608 10604 10603 10602 10602 10602 10598 10594 10588 10584 10581 10576 10571 10568 10564 10561 10559 10556 10550 10545 10542 10537 10530 10524 10519 10513 10505 10500 10493 10484 10481 10474 10467 10461 10455 10449 10445 10439 10435 10428
10594 10591 10587 10586 10583 10582 10580 10580 10578 10573 10568 10562 10558 10553 10549 10546 10540 10534 10532 10527 10522 10516 10511 10506 10499 10493 10488 10481 10476 10469 10464 10458 10453 10446 10439 10434 10430 10425 10421 10416 10412 10409 10405